Wind_Speed
9 8 7 6 6 5 4 4 4 4 4 4 4 4 4 3 3 3 3 4 4 4 3 2 3 3 3 2 3 3 3 3 4 5 5 5 5 6 7 7 7 7 6
8 8 7 6 5 5 4 4 4 4 4 4 4 4 4 3 3 3 3 3 3 3 3 3 2 2 3 3 3 3 3 3 4 6 7 6 7 7 8 7 8 8 7
8 7 6 6 5 5 4 4 3 3 3 3 4 4 3 3 2 2 2 3 3 2 2 2 1 1 2 3 3 2 2 2 3 5 6 7 7 8 8 8 8 8 8
7 7 6 5 5 5 4 4 3 3 3 4 4 4 3 3 2 2 2 3 3 3 2 2 1 1 2 3 3 2 2 2 2 3 4 6 7 8 8 8 7 7 8
7 7 6 6 5 5 5 5 3 3 3 3 3 3 3 3 2 2 2 3 3 3 2 2 2 3 3 2 2 2 2 2 2 3 3 4 5 6 7 8 8 8 8
7 6 6 6 6 5 5 5 4 3 3 3 3 2 2 2 2 1 1 2 2 2 3 3 2 3 2 2 2 1 1 2 2 3 3 4 5 6 7 8 8 9 9
7 6 6 6 5 5 5 5 4 4 3 3 3 2 2 2 2 1 1 1 2 3 3 3 2 3 2 2 2 2 3 3 3 3 4 5 6 7 7 8 9 9 9
7 6 6 6 5 5 5 5 5 4 3 3 3 3 2 2 1 1 0 1 1 2 3 3 2 2 2 2 2 3 4 4 4 4 4 6 6 6 7 8 8 9 9
7 6 6 5 5 5 4 4 4 4 4 3 3 3 2 1 1 0 1 1 1 1 2 3 2 3 3 3 3 3 4 4 4 4 4 5 6 7 7 8 8 9 10
7 7 6 5 5 5 5 4 4 4 3 3 3 3 2 2 1 1 1 1 1 1 1 2 2 3 3 3 3 3 3 3 4 4 5 5 6 7 8 8 8 9 10
6 6 6 5 5 5 5 5 4 4 4 3 3 2 2 2 2 2 2 2 1 2 2 2 2 3 3 3 3 3 4 4 3 4 4 5 5 6 8 8 9 9 10
6 6 6 5 5 5 6 5 5 5 4 4 3 3 3 2 2 3 2 2 2 3 3 3 3 3 3 3 3 4 4 4 4 5 4 4 5 6 7 8 8 9 10
6 6 6 5 5 6 6 5 6 5 5 4 4 3 3 2 2 3 3 3 3 3 2 2 2 3 3 3 4 4 4 4 4 4 4 4 4 5 7 7 8 9 9
7 6 6 6 6 6 6 6 6 6 5 4 4 3 3 3 3 3 4 3 3 3 3 3 2 2 3 3 3 3 3 4 4 4 3 4 4 6 7 7 8 9 10
7 6 5 6 6 6 6 7 6 6 5 4 4 4 4 4 3 4 5 4 4 4 3 4 3 3 3 3 3 3 3 3 3 4 4 4 5 6 7 7 8 9 10
8 7 6 6 7 7 7 7 6 6 5 4 4 4 4 4 4 4 5 5 5 5 4 4 4 4 4 3 3 4 4 3 3 4 5 5 6 6 7 7 8 8 9
10 8 7 7 7 7 7 7 6 6 6 5 4 4 4 5 5 6 6 6 6 6 6 6 6 6 5 4 4 4 5 5 4 5 6 6 6 7 7 8 8 9 10
11 10 9 8 7 7 7 6 6 6 6 6 5 4 5 5 6 6 6 7 7 7 7 7 7 6 6 5 5 5 5 6 5 6 6 6 6 7 7 8 9 9 9
12 11 10 9 8 8 7 7 7 7 7 6 6 5 5 6 6 7 7 7 7 7 8 8 8 7 7 7 7 7 7 7 6 6 6 7 7 7 7 8 8 9 10
13 12 11 10 9 9 8 8 8 8 8 7 7 6 6 6 6 7 7 6 7 7 9 9 9 9 8 8 8 8 8 9 8 7 7 7 8 8 8 9 9 9 9
15 14 13 12 10 10 10 10 10 9 9 8 8 8 7 7 8 7 7 7 8 9 10 10 10 10 10 10 10 10 10 9 9 9 9 9 9 9 10 10 10 10 10
15 14 14 13 12 11 11 12 12 11 10 9 10 9 9 9 9 9 9 9 9 10 11 11 10 11 11 11 11 10 10 10 10 10 10 10 10 11 11 11 11 11 11
16 15 15 14 14 14 13 13 12 12 11 11 11 10 10 9 10 10 10 11 11 11 11 11 11 11 12 12 11 11 11 11 11 12 12 12 12 12 11 12 12 13 13
17 16 15 14 14 14 14 13 13 13 13 12 11 11 11 11 11 12 12 12 12 12 12 12 12 12 12 12 12 13 12 12 12 13 13 13 13 12 12 12 13 14 14
18 18 17 17 17 16 16 15 14 14 14 14 14 13 13 13 13 13 13 13 13 13 13 13 13 14 13 13 13 13 13 13 14 14 14 14 14 14 14 14 14 15 15
20 19 19 19 18 18 17 16 16 16 16 16 16 15 15 14 14 14 14 14 15 15 14 14 15 15 15 14 14 14 14 14 14 15 15 15 16 16 16 16 16 17 17
Wind_Direction
24 25 30 28 28 29 35 41 47 57 66 75 81 84 87 94 97 97 100 105 112 117 120 109 112 139 156 171 181 176 186 195 200 202 203 200 200 203 204 202 200 201 202
22 22 25 23 23 25 30 41 50 61 69 74 73 80 86 96 104 105 112 116 126 128 131 137 122 134 144 157 177 184 189 202 205 201 201 206 204 205 205 207 205 207 209
18 19 19 18 18 22 28 35 45 61 72 77 72 80 86 93 106 115 125 133 138 152 163 151 130 118 143 167 178 189 181 207 213 202 207 207 208 209 207 206 210 211 213
15 16 14 13 12 17 20 24 48 67 73 76 71 77 84 88 101 120 139 146 154 170 198 212 204 174 160 167 184 179 178 205 224 221 231 217 210 210 210 208 207 208 211
17 18 12 10 12 15 25 38 58 63 62 66 65 71 77 81 79 111 144 161 165 179 207 214 209 195 174 177 191 198 210 234 251 242 240 224 215 214 212 209 210 211 213
14 13 8 9 12 18 27 42 48 49 47 49 56 57 59 62 68 94 153 182 186 200 207 209 221 207 199 208 223 229 246 256 250 243 250 239 229 219 215 213 214 215 217
10 6 3 4 6 12 23 31 33 36 35 38 39 40 38 40 54 50 157 206 214 220 229 230 224 212 223 232 236 245 250 252 259 255 244 238 230 221 217 216 216 215 219
4 1 358 355 355 359 14 21 22 25 33 36 36 34 46 45 29 36 193 236 252 232 229 227 216 229 234 237 241 244 256 257 250 249 243 233 229 226 218 217 216 217 220
358 355 349 348 351 356 4 7 15 22 28 30 31 28 34 28 350 290 238 264 271 239 221 222 229 234 238 235 245 245 253 257 251 240 235 227 222 224 222 216 218 223 223
348 347 340 344 351 353 358 2 6 12 9 8 12 15 6 340 336 348 265 269 271 246 224 221 226 231 235 241 255 258 269 266 253 249 235 227 223 222 221 218 224 225 225
341 339 336 333 340 347 351 352 352 350 346 347 349 353 348 324 304 279 281 272 261 253 240 238 237 234 237 248 257 267 275 274 265 252 236 226 221 217 220 224 226 229 230
338 336 337 330 332 338 341 340 339 337 333 334 334 340 342 333 311 282 270 248 249 262 254 256 249 236 242 253 260 270 280 278 265 251 246 231 223 222 220 226 228 235 234
326 327 330 328 331 334 334 335 333 331 327 323 320 324 320 330 318 302 282 253 254 263 262 264 247 238 242 251 259 269 280 280 270 250 246 238 230 232 227 225 236 238 240
312 313 318 323 327 327 331 333 330 324 324 322 319 318 309 308 310 302 293 272 268 266 259 256 247 249 256 256 256 265 275 283 281 270 245 244 234 230 232 234 242 243 243
303 306 311 316 317 316 319 328 329 322 321 321 323 320 307 295 291 290 290 274 261 265 252 246 241 243 265 268 256 259 273 286 290 275 261 254 249 241 241 239 234 236 240
292 295 301 307 310 311 316 321 326 321 322 321 320 319 311 304 295 283 285 271 261 261 256 252 250 245 252 264 264 260 262 278 278 286 273 266 262 257 252 246 244 244 247
283 285 290 296 299 305 311 315 323 321 320 316 313 314 314 308 299 285 278 271 263 262 261 260 259 258 256 263 268 270 272 275 273 280 282 275 267 265 267 265 263 262 256
276 278 283 287 287 293 299 306 313 314 317 313 307 303 304 306 299 291 281 271 261 256 256 261 261 260 262 268 270 271 273 279 281 282 281 282 278 274 272 271 267 265 266
271 273 276 278 275 281 287 292 298 302 305 308 305 297 300 302 299 291 284 275 268 259 257 261 262 265 267 269 270 272 270 275 285 282 280 277 277 276 275 278 274 274 272
268 268 268 269 274 277 280 285 291 294 293 296 295 293 297 295 297 294 284 276 269 263 261 262 264 265 268 270 270 271 272 276 277 279 282 276 271 271 277 280 278 276 276
264 266 266 264 268 270 276 281 285 287 289 285 288 292 285 284 288 288 282 278 271 268 266 265 265 265 267 271 274 273 273 272 271 274 276 277 274 273 278 278 277 273 273
261 261 258 259 264 267 272 277 283 283 284 284 282 285 285 283 281 283 283 281 275 270 268 264 263 265 268 272 273 273 276 275 271 273 272 271 273 275 276 276 277 276 274
258 257 254 260 265 268 271 276 281 278 280 280 279 282 284 285 284 283 283 280 276 273 271 265 262 264 267 270 274 277 278 275 274 273 273 271 273 275 276 277 277 276 279
257 256 258 264 269 269 271 277 277 275 276 280 284 286 285 285 285 285 283 279 276 274 271 266 264 263 267 269 272 274 276 275 273 272 272 272 272 273 275 278 277 276 279
256 256 257 262 266 268 270 273 274 273 273 275 279 282 283 283 284 285 284 280 277 274 270 266 267 267 269 270 272 273 275 274 274 272 269 272 274 274 275 276 275 276 278
253 256 258 260 262 265 267 270 273 274 273 274 278 281 282 283 283 283 283 280 277 275 275 269 271 271 270 270 270 271 273 273 273 273 271 270 273 275 276 275 274 276 277
Height
5892 5891 5890 5889 5888 5886 5885 5884 5883 5882 5881 5881 5880 5880 5880 5879 5879 5879 5879 5879 5878 5878 5878 5878 5878 5878 5878 5878 5878 5879 5879 5879 5880 5880 5880 5881 5881 5882 5883 5884 5885 5886 5887
5893 5891 5890 5889 5888 5886 5885 5884 5883 5882 5881 5881 5880 5880 5879 5879 5879 5879 5879 5878 5878 5878 5878 5878 5878 5878 5877 5878 5878 5878 5879 5879 5879 5879 5879 5880 5881 5881 5882 5883 5884 5885 5886
5892 5891 5890 5889 5888 5886 5885 5883 5882 5882 5881 5881 5880 5880 5879 5879 5878 5878 5878 5878 5878 5878 5878 5878 5878 5877 5877 5877 5878 5878 5878 5878 5878 5878 5878 5879 5879 5880 5881 5882 5883 5884 5885
5892 5891 5890 5889 5887 5886 5884 5881 5881 5881 5881 5880 5880 5879 5879 5878 5878 5878 5878 5878 5878 5878 5877 5877 5877 5877 5877 5877 5877 5878 5878 5878 5878 5878 5878 5878 5878 5879 5881 5882 5883 5883 5884
5892 5891 5890 5888 5887 5885 5883 5880 5880 5881 5881 5880 5880 5879 5879 5878 5878 5878 5877 5877 5877 5877 5877 5877 5877 5876 5877 5877 5877 5877 5877 5877 5877 5877 5877 5877 5878 5878 5879 5881 5881 5882 5883
5892 5891 5890 5888 5887 5885 5884 5882 5881 5881 5880 5879 5879 5879 5878 5878 5878 5877 5877 5877 5877 5877 5876 5876 5876 5876 5876 5877 5877 5877 5877 5876 5876 5876 5876 5876 5877 5878 5878 5879 5880 5881 5882
5892 5891 5890 5888 5887 5886 5884 5883 5882 5881 5880 5879 5878 5878 5878 5877 5877 5877 5876 5876 5876 5876 5876 5876 5876 5876 5876 5876 5876 5876 5876 5876 5875 5875 5875 5876 5876 5876 5877 5878 5879 5880 5881
5892 5891 5889 5888 5887 5886 5884 5883 5882 5881 5880 5879 5878 5878 5877 5877 5876 5876 5875 5875 5875 5875 5875 5875 5875 5876 5876 5876 5875 5875 5875 5875 5875 5874 5874 5874 5875 5875 5876 5877 5878 5879 5880
5892 5890 5889 5888 5887 5885 5884 5883 5882 5881 5880 5879 5878 5877 5877 5876 5875 5875 5875 5875 5874 5874 5874 5875 5875 5875 5875 5875 5874 5874 5874 5874 5873 5873 5873 5873 5873 5874 5874 5875 5876 5878 5879
5891 5890 5889 5888 5886 5885 5884 5882 5881 5880 5880 5879 5878 5877 5876 5875 5875 5874 5874 5874 5874 5874 5874 5874 5874 5874 5874 5874 5874 5873 5873 5872 5872 5871 5871 5872 5872 5873 5873 5874 5875 5876 5877
5891 5890 5889 5887 5886 5885 5883 5882 5881 5880 5879 5878 5877 5876 5875 5875 5874 5874 5874 5873 5873 5873 5873 5873 5873 5873 5873 5873 5873 5873 5872 5872 5871 5870 5870 5870 5871 5871 5872 5873 5874 5875 5876
5891 5890 5889 5887 5886 5885 5883 5882 5881 5879 5878 5877 5876 5875 5875 5874 5873 5873 5873 5872 5872 5872 5872 5872 5872 5872 5872 5872 5872 5872 5871 5871 5870 5869 5869 5869 5870 5870 5870 5871 5872 5873 5874
5890 5889 5888 5887 5885 5884 5883 5882 5880 5879 5878 5877 5876 5875 5874 5873 5873 5872 5872 5871 5871 5871 5871 5871 5871 5871 5871 5871 5871 5870 5870 5870 5869 5868 5868 5868 5869 5869 5869 5870 5871 5871 5872
5889 5889 5888 5886 5885 5884 5883 5881 5880 5878 5877 5876 5875 5874 5873 5872 5872 5871 5871 5870 5870 5870 5870 5870 5870 5870 5870 5870 5870 5869 5869 5869 5868 5868 5867 5867 5868 5868 5868 5868 5869 5869 5870
5888 5887 5886 5885 5884 5883 5882 5880 5879 5878 5876 5875 5874 5873 5872 5871 5871 5870 5870 5870 5870 5870 5870 5870 5869 5869 5869 5869 5869 5869 5868 5868 5868 5867 5867 5867 5866 5866 5867 5867 5868 5868 5868
5887 5886 5885 5884 5883 5882 5881 5880 5878 5877 5875 5874 5873 5872 5871 5871 5870 5869 5869 5868 5869 5869 5868 5868 5869 5869 5868 5868 5868 5868 5868 5867 5867 5866 5866 5866 5866 5865 5866 5866 5866 5866 5867
5885 5884 5883 5882 5882 5881 5880 5878 5877 5876 5874 5873 5872 5871 5870 5870 5869 5868 5868 5867 5867 5867 5867 5867 5867 5867 5867 5867 5867 5867 5867 5866 5866 5865 5865 5865 5865 5865 5865 5865 5865 5866 5865
5883 5883 5882 5881 5880 5879 5878 5877 5876 5875 5873 5872 5871 5870 5869 5869 5868 5867 5867 5866 5866 5866 5866 5866 5866 5866 5866 5866 5866 5866 5865 5865 5864 5864 5864 5864 5863 5863 5863 5863 5864 5864 5864
5881 5880 5879 5878 5877 5877 5876 5875 5874 5873 5872 5871 5870 5869 5868 5867 5866 5866 5865 5865 5864 5865 5865 5865 5865 5865 5865 5864 5864 5864 5864 5863 5863 5862 5862 5862 5862 5862 5862 5862 5862 5862 5862
5877 5877 5876 5876 5875 5874 5874 5873 5872 5872 5871 5870 5869 5868 5867 5866 5865 5864 5864 5863 5863 5863 5863 5863 5863 5863 5863 5863 5863 5862 5862 5862 5861 5861 5861 5860 5860 5860 5860 5860 5860 5860 5860
5874 5873 5873 5873 5873 5872 5872 5871 5870 5870 5869 5867 5866 5866 5865 5864 5863 5863 5862 5861 5861 5861 5861 5861 5861 5861 5861 5861 5861 5860 5860 5859 5859 5859 5859 5859 5859 5858 5858 5858 5858 5858 5858
5870 5869 5869 5870 5870 5870 5869 5869 5868 5867 5866 5865 5864 5863 5863 5862 5861 5861 5860 5860 5859 5859 5859 5858 5858 5858 5858 5858 5858 5858 5858 5858 5857 5857 5857 5857 5857 5857 5856 5856 5856 5855 5855
5866 5866 5865 5866 5866 5866 5866 5866 5865 5864 5863 5861 5860 5861 5860 5860 5859 5858 5858 5857 5857 5856 5856 5856 5856 5856 5856 5856 5855 5855 5855 5855 5855 5855 5854 5854 5854 5854 5854 5853 5853 5852 5852
5862 5862 5863 5863 5863 5863 5863 5862 5862 5861 5861 5859 5858 5858 5857 5857 5856 5856 5855 5854 5854 5853 5853 5853 5853 5853 5853 5853 5853 5852 5852 5851 5851 5852 5852 5851 5851 5851 5851 5850 5850 5849 5849
5858 5858 5859 5859 5859 5859 5859 5859 5859 5858 5857 5857 5856 5855 5854 5854 5853 5853 5852 5851 5851 5850 5850 5849 5849 5850 5850 5850 5849 5849 5849 5848 5848 5848 5848 5848 5847 5847 5847 5847 5846 5846 5845
5853 5854 5854 5855 5855 5855 5855 5855 5855 5854 5854 5853 5852 5852 5851 5850 5850 5849 5848 5848 5847 5847 5846 5846 5846 5846 5846 5846 5846 5846 5846 5845 5845 5845 5844 5844 5844 5843 5843 5842 5842 5842 5841